Location: Croagnes
(43.9363°N, 5.3265°E)
Time: 07:58:04
(UTC+00:00)

UNISAT 6 - Visible Passes

Search period start: 28 October 2021 00:00
Search period end: 07 November 2021 00:00
Orbit: 606 x 687 km, 97.7° (Epoch: 27 October)

Date Brightness Start Highest point End Pass type
(mag) Time Alt. Az. Time Alt. Az. Time Alt. Az.
28 Oct ? 04:31:09 10° ESE 04:34:18 18° ENE 04:37:25 10° NNE visible
28 Oct ? 18:00:21 28° ESE 18:00:21 28° ESE 18:03:45 10° SSE visible
28 Oct ? 19:38:07 23° W 19:38:07 23° W 19:40:20 10° SW visible
29 Oct ? 04:55:37 10° SE 04:59:40 30° ENE 05:03:42 10° N visible
29 Oct ? 18:26:43 43° SE 18:26:43 43° SE 18:29:57 10° S visible
29 Oct ? 20:04:28 11° W 20:04:28 11° W 20:04:41 10° WSW visible
30 Oct ? 05:20:36 10° SSE 05:25:09 53° ENE 05:29:38 10° N visible
30 Oct ? 18:52:59 39° SSW 18:52:59 39° SSW 18:55:40 10° SSW visible
31 Oct ? 04:12:54 10° E 04:14:41 12° ENE 04:16:27 10° NE visible
31 Oct ? 17:41:26 15° ESE 17:41:26 15° ESE 17:42:55 10° SE visible
31 Oct ? 19:19:10 23° SW 19:19:10 23° SW 19:20:57 10° SW visible
01 Nov ? 04:36:36 10° ESE 04:39:59 20° ENE 04:43:20 10° NNE visible
01 Nov ? 18:07:35 23° SE 18:07:35 23° SE 18:09:37 10° SSE visible
01 Nov ? 19:45:19 12° WSW 19:45:19 12° WSW 19:45:46 10° WSW visible
02 Nov ? 05:01:12 10° SE 05:05:22 34° ENE 05:09:31 10° N visible
02 Nov ? 18:33:41 27° S 18:33:41 27° S 18:35:41 10° S visible
03 Nov ? 05:26:17 10° SSE 05:30:52 62° ENE 05:35:23 10° N visible
03 Nov ? 18:59:45 22° SSW 18:59:45 22° SSW 19:01:18 10° SSW visible
04 Nov ? 04:18:04 10° E 04:20:20 14° ENE 04:22:34 10° NNE visible
04 Nov ? 17:48:03 14° SE 17:48:03 14° SE 17:48:55 10° SE visible
04 Nov ? 19:25:48 14° SW 19:25:48 14° SW 19:26:28 10° SW visible
05 Nov ? 04:42:03 10° ESE 04:45:39 23° ENE 04:49:11 10° NNE visible
05 Nov ? 18:14:05 19° SSE 18:14:05 19° SSE 18:15:27 10° SSE visible
06 Nov ? 05:06:48 10° SE 05:11:04 39° ENE 05:15:17 10° N visible
06 Nov ? 18:40:05 20° S 18:40:05 20° S 18:41:23 10° S visible
